Location: Casilda
(33.0440°S, 61.1680°W)
Time: 10:39:36
(UTC-03:00)

ISS - Pass Details

Date: 13 October 2019
Orbit: 411 x 421 km, 51.6° (Epoch: 18 October)

Event Time Altitude Azimuth Distance (km) Brightness Sun altitude
Rises 05:22:28 0° 213° (SSW) 2,399 -0.1 -13.9°
Reaches altitude 10° 05:25:01 10° 194° (SSW) 1,529 -0.9 -13.4°
Maximum altitude 05:27:33 19° 146° (SSE) 1,094 -0.9 -12.9°
Drops below altitude 10° 05:30:04 10° 99° (E) 1,520 0.5 -12.4°
Sets 05:32:36 0° 80° (E) 2,379 1.3 -11.9°
